CDT,Max TemperatureF,Mean TemperatureF,Min TemperatureF,Max Dew PointF,MeanDew PointF,Min DewpointF,Max Humidity, Mean Humidity, Min Humidity, Max Sea Level PressureIn, Mean Sea Level PressureIn, Min Sea Level PressureIn, Max VisibilityMiles, Mean VisibilityMiles, Min VisibilityMiles, Max Wind SpeedMPH, Mean Wind SpeedMPH, Max Gust SpeedMPH,PrecipitationIn, CloudCover, Events, WindDirDegrees
2013-7-1,84,70,55,60,56,53,93,65,37,30.22,30.19,30.16,10,9,7,12,3,16,0.00,1,,23
2013-7-2,84,70,56,58,53,46,90,62,34,30.20,30.14,30.08,10,10,10,8,2,10,0.00,1,,78
2013-7-3,84,69,53,57,54,50,100,66,32,30.09,30.04,29.96,10,10,9,12,3,16,0.00,0,,166
2013-7-4,89,72,55,60,56,53,93,62,31,29.97,29.91,29.84,10,10,8,21,8,25,0.00,0,,169
2013-7-5,89,79,68,62,59,55,66,53,40,29.87,29.83,29.78,10,10,10,25,13,32,0.00,1,,176
2013-7-6,78,74,69,71,66,61,93,74,54,29.86,29.84,29.81,10,8,5,15,6,20,0.04,2,Rain,136
2013-7-7,92,80,67,74,68,65,100,75,50,29.91,29.85,29.82,10,7,2,17,4,24,0.02,2,Rain-Thunderstorm,202
2013-7-8,86,75,63,67,65,62,100,76,51,30.04,29.97,29.93,10,5,0,9,3,13,0.00,3,Fog,42
2013-7-9,86,76,65,70,66,61,93,74,55,29.97,29.85,29.74,10,9,1,24,11,30,0.64,4,Rain,258
2013-7-10,80,68,56,57,55,53,93,68,42,30.09,30.05,29.99,10,8,6,16,8,22,0.00,0,,316
2013-7-11,84,69,54,60,56,53,100,70,40,30.13,30.07,29.97,9,6,2,17,7,23,0.00,0,,161
2013-7-12,89,79,68,62,59,56,66,53,40,29.99,29.93,29.86,10,10,10,24,14,31,0.14,0,,168
2013-7-13,77,73,68,67,65,59,90,79,68,30.07,29.98,29.91,10,9,2,21,10,28,0.16,7,Rain-Thunderstorm,161
2013-7-14,82,75,67,68,63,58,90,74,58,30.21,30.13,30.06,10,10,9,15,7,18,0.00,6,,163
2013-7-15,87,77,66,67,65,63,93,71,48,30.24,30.21,30.17,10,9,4,15,6,28,0.00,1,,149
2013-7-16,92,82,71,70,67,63,93,67,41,30.22,30.18,30.16,10,9,6,20,8,23,0.00,0,,204
2013-7-17,93,81,68,71,67,64,93,66,39,30.24,30.19,30.11,10,10,8,14,8,21,0.00,0,,209
2013-7-18,94,83,72,70,68,64,93,66,39,30.10,29.91,29.73,10,10,10,25,13,32,0.00,1,,207
2013-7-19,84,74,63,70,61,56,82,60,37,29.92,29.84,29.72,10,9,2,30,11,43,0.14,2,Rain-Thunderstorm,289
2013-7-20,76,69,62,62,57,54,93,70,46,29.99,29.95,29.90,10,10,8,12,4,15,T,3,,63
2013-7-21,81,69,57,66,58,50,90,71,51,29.98,29.90,29.80,10,10,10,14,6,20,0.00,2,,116
2013-7-22,85,73,61,68,62,54,100,70,40,29.90,29.75,29.68,10,10,8,22,10,26,0.00,4,,279
2013-7-23,77,66,54,54,51,47,93,65,36,30.05,30.00,29.91,10,10,10,13,6,20,0.00,1,,5
2013-7-24,79,69,58,57,54,50,87,62,37,30.10,30.03,29.95,10,10,8,10,3,12,0.01,5,Rain-Thunderstorm,181
2013-7-25,79,68,57,63,60,56,100,73,45,30.00,29.95,29.92,10,9,2,21,5,25,0.21,3,Rain-Thunderstorm,249
2013-7-26,68,58,48,59,51,45,97,77,56,30.14,30.02,29.94,10,10,9,24,11,33,T,5,Rain,329
2013-7-27,66,56,45,46,44,41,93,69,45,30.14,30.06,29.99,10,10,10,21,10,30,T,6,,332
2013-7-28,74,59,43,54,47,42,93,69,44,30.10,30.04,30.01,10,10,10,14,5,20,0.00,2,,347
2013-7-29,76,61,45,61,52,45,100,71,41,30.15,30.11,30.09,10,10,7,15,5,18,T,2,Rain,171
2013-7-30,71,65,58,62,60,56,100,87,73,30.12,30.10,30.07,10,8,0,8,3,10,0.07,6,Fog-Rain,132
2013-7-31,81,67,53,63,56,46,100,66,32,30.10,30.06,30.02,10,4,0,23,7,30,0.00,1,Fog,297